Location: Unspecified
(0.0000°N, 0.0000°E)
Time: 14:52:29
(UTC+00:00)

Vanguard 1 Rocket - Pass Details

Date: 09 December 2017
Orbit: 652 x 4225 km, 34.3° (Epoch: 21 July)

Event Time Altitude Azimuth Distance (km) Brightness Sun altitude
Rises 02:24:23 0° 305° (NW) 8,445 - -46.6°
Reaches altitude 10° 02:30:20 10° 304° (NW) 7,419 - -45.3°
Exits shadow 02:51:11 64° 284° (WNW) 3,792 10.0 -40.9°
Maximum altitude 02:55:47 78° 220° (SW) 3,314 9.9 -39.9°
Drops below altitude 10° 03:10:26 10° 133° (SE) 4,645 11.7 -36.7°
Sets 03:13:13 0° 132° (SE) 5,293 12.3 -36.1°
